AEE124 EDDL-EDDF

Flight info

Callsign AEE124
Flight time N/A
Altitude 21000
Route COL6T COL T911 ROLIS ROLIS5A
Aircraft A20N/M-SDE2E3FGHIRWXY/LB1

Departure

Time 2026-05-04 17:15
Airport Düsseldorf Airport (EDDL)

Arrival

Time N/A
Airport Frankfurt Main Airport (EDDF)
Time Latitude Longitude Altitude Speed Heading
2026-05-04 16:42 51.28424 6.76911 136 ft 0 kts 322°
2026-05-04 17:02 51.28416 6.76921 135 ft 2 kts 323°
2026-05-04 17:02 51.28396 6.76958 134 ft 4 kts 287°
2026-05-04 17:03 51.28393 6.76980 134 ft 3 kts 269°
2026-05-04 17:03 51.28394 6.76996 134 ft 2 kts 258°
2026-05-04 17:03 51.28401 6.77029 133 ft 0 kts 238°
2026-05-04 17:06 51.28356 6.76948 132 ft 7 kts 251°
2026-05-04 17:06 51.28373 6.76883 133 ft 7 kts 308°
2026-05-04 17:07 51.28465 6.76788 137 ft 3 kts 17°
2026-05-04 17:07 51.28488 6.76799 138 ft 7 kts 18°
2026-05-04 17:07 51.28551 6.76913 139 ft 15 kts 58°
2026-05-04 17:07 51.28633 6.77068 142 ft 21 kts 51°
2026-05-04 17:08 51.28728 6.77269 140 ft 24 kts 53°
2026-05-04 17:08 51.28851 6.77532 139 ft 10 kts 53°
2026-05-04 17:08 51.28896 6.77627 141 ft 11 kts 52°
2026-05-04 17:09 51.28946 6.77734 141 ft 13 kts 54°
2026-05-04 17:09 51.29008 6.77861 144 ft 15 kts 51°
2026-05-04 17:09 51.29073 6.77997 145 ft 17 kts 52°
2026-05-04 17:10 51.29206 6.78286 145 ft 14 kts 52°
2026-05-04 17:10 51.29334 6.78542 146 ft 0 kts 43°
2026-05-04 17:12 51.29341 6.78549 146 ft 4 kts 36°
2026-05-04 17:12 51.29364 6.78564 146 ft 0 kts 13°
2026-05-04 17:13 51.29370 6.78566 146 ft 3 kts
2026-05-04 17:14 51.29472 6.78556 148 ft 10 kts 334°
2026-05-04 17:14 51.29503 6.78456 148 ft 13 kts 263°
2026-05-04 17:14 51.29244 6.77926 148 ft 91 kts 229°
2026-05-04 17:15 51.28726 6.76766 154 ft 161 kts 230°
2026-05-04 17:15 51.27241 6.73741 1823 ft 162 kts 225°
2026-05-04 17:16 51.25712 6.70725 3336 ft 194 kts 229°
2026-05-04 17:16 51.22688 6.64894 4943 ft 272 kts 213°
2026-05-04 17:17 51.20799 6.63767 4974 ft 313 kts 187°
2026-05-04 17:17 51.14669 6.67911 4976 ft 348 kts 128°
2026-05-04 17:18 51.13585 6.71370 4996 ft 354 kts 107°
2026-05-04 17:18 51.13495 6.79251 4998 ft 359 kts 87°
2026-05-04 17:19 51.13729 6.87246 4997 ft 359 kts 93°
2026-05-04 17:19 51.13875 6.95144 4998 ft 359 kts 91°
2026-05-04 17:20 51.14147 7.03087 4999 ft 359 kts 90°
2026-05-04 17:20 51.14071 7.11305 5002 ft 362 kts 102°
2026-05-04 17:20 51.13572 7.15105 4996 ft 342 kts 108°
2026-05-04 17:21 51.12357 7.22840 5003 ft 371 kts 109°
2026-05-04 17:21 51.09771 7.29484 4995 ft 349 kts 148°
2026-05-04 17:22 51.07874 7.31283 4995 ft 347 kts 156°
2026-05-04 17:22 51.06213 7.32703 5000 ft 345 kts 156°
2026-05-04 17:23 50.99957 7.38408 5000 ft 347 kts 153°
2026-05-04 17:23 50.97885 7.40413 4994 ft 349 kts 152°
2026-05-04 17:23 50.93759 7.44436 4998 ft 347 kts 152°
2026-05-04 17:24 50.91695 7.46448 5012 ft 347 kts 152°
2026-05-04 17:24 50.85512 7.52454 5007 ft 348 kts 152°
2026-05-04 17:25 50.83474 7.54429 5006 ft 347 kts 152°
2026-05-04 17:25 50.79346 7.58420 5004 ft 347 kts 152°
2026-05-04 17:26 50.74999 7.61639 5014 ft 344 kts 160°
2026-05-04 17:26 50.68342 7.66061 6094 ft 348 kts 160°
2026-05-04 17:27 50.63836 7.69056 7912 ft 356 kts 160°
2026-05-04 17:27 50.59230 7.72114 9527 ft 368 kts 160°
2026-05-04 17:28 50.54486 7.75260 9983 ft 371 kts 160°
2026-05-04 17:29 50.47350 7.79975 9993 ft 371 kts 160°
2026-05-04 17:29 50.40614 7.86050 9991 ft 377 kts 144°
2026-05-04 17:30 50.34442 7.93667 9985 ft 375 kts 146°
2026-05-04 17:31 50.30335 7.98675 9983 ft 375 kts 146°
2026-05-04 17:31 50.24608 8.06973 9980 ft 380 kts 133°
2026-05-04 17:32 50.21743 8.13845 9968 ft 384 kts 123°
2026-05-04 17:33 50.19045 8.25668 9964 ft 391 kts 105°
2026-05-04 17:33 50.18664 8.29877 9959 ft 393 kts 99°
2026-05-04 17:34 50.19221 8.42736 9966 ft 398 kts 87°
2026-05-04 17:34 50.19573 8.47016 9963 ft 398 kts 86°
2026-05-04 17:35 50.20659 8.59484 9893 ft 361 kts 86°
2026-05-04 17:35 50.21309 8.66891 9579 ft 332 kts 86°
2026-05-04 17:35 50.21611 8.70392 9446 ft 319 kts 86°
2026-05-04 17:36 50.21898 8.73755 9320 ft 305 kts 86°
2026-05-04 17:36 50.22171 8.77002 9023 ft 299 kts 87°
2026-05-04 17:36 50.22427 8.80211 8643 ft 297 kts 87°
2026-05-04 17:36 50.22680 8.83406 8219 ft 295 kts 87°
2026-05-04 17:37 50.22937 8.86582 7841 ft 294 kts 87°
2026-05-04 17:37 50.23192 8.89696 7478 ft 292 kts 86°
2026-05-04 17:37 50.23450 8.92825 7117 ft 290 kts 86°
2026-05-04 17:37 50.23605 8.95980 6749 ft 284 kts 99°
2026-05-04 17:38 50.23015 8.98854 6359 ft 275 kts 126°
2026-05-04 17:38 50.21836 9.00854 6078 ft 265 kts 149°
2026-05-04 17:38 50.20156 9.02002 5985 ft 266 kts 172°
2026-05-04 17:38 50.18338 9.01991 5975 ft 261 kts 194°
2026-05-04 17:39 50.15347 8.98966 5981 ft 260 kts 224°
2026-05-04 17:39 50.14040 8.97010 5974 ft 260 kts 224°
2026-05-04 17:39 50.12736 8.95056 5969 ft 259 kts 224°
2026-05-04 17:40 50.11439 8.93107 5813 ft 258 kts 224°
2026-05-04 17:40 50.10131 8.91199 5422 ft 259 kts 225°
2026-05-04 17:40 50.08775 8.89318 4985 ft 260 kts 225°
2026-05-04 17:40 50.07687 8.87115 4655 ft 255 kts 244°
2026-05-04 17:41 50.06989 8.84691 4544 ft 244 kts 258°
2026-05-04 17:41 50.06784 8.82098 4425 ft 233 kts 267°
2026-05-04 17:41 50.06731 8.79661 4323 ft 223 kts 270°
2026-05-04 17:41 50.06759 8.77297 4219 ft 210 kts 273°
2026-05-04 17:42 50.06841 8.75119 4146 ft 197 kts 277°
2026-05-04 17:42 50.07376 8.73303 4072 ft 184 kts 316°
2026-05-04 17:42 50.08509 8.72607 3975 ft 173 kts
2026-05-04 17:42 50.09571 8.73248 3978 ft 167 kts 33°
2026-05-04 17:43 50.10649 8.74325 3973 ft 188 kts 34°
2026-05-04 17:43 50.11727 8.75411 3982 ft 192 kts 34°
2026-05-04 17:43 50.12891 8.76585 3980 ft 201 kts 34°
2026-05-04 17:43 50.14065 8.77766 3979 ft 201 kts 34°
2026-05-04 17:44 50.15241 8.78959 3976 ft 202 kts 34°
2026-05-04 17:44 50.16416 8.80157 3978 ft 201 kts 34°
2026-05-04 17:44 50.17584 8.81354 3981 ft 201 kts 34°
2026-05-04 17:44 50.18752 8.82556 3982 ft 201 kts 34°
2026-05-04 17:45 50.19913 8.83760 3980 ft 201 kts 34°
2026-05-04 17:45 50.21077 8.84982 3986 ft 201 kts 37°
2026-05-04 17:45 50.21893 8.86685 3993 ft 200 kts 71°
2026-05-04 17:45 50.22310 8.88732 3978 ft 199 kts 80°
2026-05-04 17:46 50.22537 8.90856 3985 ft 200 kts 84°
2026-05-04 17:46 50.22740 8.92994 3983 ft 198 kts 84°
2026-05-04 17:46 50.22865 8.95128 3977 ft 196 kts 99°
2026-05-04 17:46 50.22441 8.97117 3982 ft 194 kts 130°
2026-05-04 17:47 50.21364 8.98254 3983 ft 187 kts 169°
2026-05-04 17:47 50.20101 8.98027 3981 ft 185 kts 208°
2026-05-04 17:47 50.19002 8.96981 3984 ft 185 kts 214°
2026-05-04 17:47 50.17920 8.95903 3981 ft 185 kts 214°
2026-05-04 17:48 50.16834 8.94822 3981 ft 185 kts 213°
2026-05-04 17:48 50.15750 8.93739 3978 ft 185 kts 214°
2026-05-04 17:48 50.14666 8.92647 3986 ft 185 kts 213°
2026-05-04 17:48 50.13586 8.91554 3981 ft 184 kts 214°
2026-05-04 17:49 50.12547 8.90381 3979 ft 185 kts 223°
2026-05-04 17:49 50.11731 8.88866 3982 ft 185 kts 243°
2026-05-04 17:49 50.11229 8.86986 3981 ft 186 kts 248°
2026-05-04 17:49 50.10774 8.85104 3975 ft 186 kts 249°